[[{"header":{"parameterUnit":"m.s-1","parameterCategory":1,"la1":30.2991,"la2":30.254,"lo1":-89.0895,"lo2":-89.0444,"dx":0.0017,"dy":0.0017,"nx":28,"ny":28,"refTime":"2023-01-02T15:00:00:Z","depth":0,"parameterNumber":2,"parameterNumberName":"U-component_of_WINDS"},"data":[0,0,0,0,0,0,0,0,0,0,0,0,0,0,0,0,0,0,0,0,0,0,0,0,0,0,0,0,0,0,0,0,0,0,0,0,0,0,0,0,0,0,0,0,0,0,0,0,0,0,0,0,0,0,0,0,0,0,-3.2582,-3.2583,0,-3.2753,-3.2754,-3.2756,-3.2809,-3.2808,-3.2807,-3.2806,-3.2976,-3.2981,-3.2986,0,0,0,0,0,0,0,0,0,0,0,0,0,-3.2295,-3.23,-3.2581,-3.2584,-3.2586,-3.2752,-3.2755,-3.2757,-3.2809,-3.2808,-3.2807,-3.2806,-3.2974,-3.298,-3.2987,0,0,0,0,0,0,0,0,0,0,0,0,0,-3.2438,-3.2302,-3.2581,-3.2632,-3.2638,-3.2752,-3.2755,-3.2758,-3.2809,-3.2808,-3.2807,-3.2806,-3.2972,-3.298,-3.2988,-3.3061,0,0,-3.3012,-3.3015,0,0,0,0,0,0,0,0,-3.243,-3.2448,-3.2622,-3.2629,-3.2636,-3.2758,-3.2716,-3.2859,-3.281,-3.2744,-3.2806,-3.2805,-3.2904,-3.2918,-3.2952,-3.3069,-3.3077,-3.3013,-3.3017,-3.3021,-3.3023,0,0,0,0,0,0,0,-3.242,-3.2441,-3.2649,-3.2625,-3.2633,-3.2645,-3.2664,-3.2743,-3.2829,-3.275,-3.2754,-3.2774,-3.2908,-3.2944,-3.2957,-3.3079,-3.3012,-3.3019,-3.3024,-3.3027,-3.3265,-3.3266,0,0,0,0,0,0,-3.2402,-3.2433,-3.2644,-3.2654,-3.2528,-3.2651,-3.2672,-3.272,-3.2828,-3.2844,-3.2775,-3.2776,-3.2932,-3.2947,-3.2963,-3.3056,-3.3021,-3.3028,-3.3033,-3.3263,-3.3265,-3.3267,0,0,0,0,0,0,-3.2396,-3.242,-3.2637,-3.2545,-3.2573,-3.2657,-3.2711,-3.2724,-3.2761,-3.2847,-3.2862,-3.2797,-3.2931,-3.2952,-3.3037,-3.3062,-3.3032,-3.3039,-3.3261,-3.3264,-3.3266,-3.3242,0,0,0,0,0,0,-3.2387,-3.2418,-3.2448,-3.2545,-3.2578,-3.2709,-3.2712,-3.2728,-3.2775,-3.2778,-3.2872,-3.2886,-3.2932,-3.3025,-3.3045,-3.3072,-3.3045,-3.3259,-3.3262,-3.3265,-3.3241,-3.3243,-3.3245,0,0,0,0,0,-3.2377,-3.2433,-3.2449,-3.2474,-3.2617,-3.271,-3.2729,-3.2782,-3.2777,-3.2807,-3.2862,-3.2883,-3.3057,-3.3033,-3.3056,-3.3086,-3.3258,-3.3261,-3.3265,-3.324,-3.3242,-3.3245,0,0,0,0,0,0,-3.2334,-3.2447,-3.2465,-3.2555,-3.2623,-3.2719,-3.2759,-3.2783,-3.2853,-3.2852,-3.2913,-3.2934,-3.3014,-3.3059,-3.3031,-3.3163,-3.3158,-3.3166,-3.3131,-3.3134,-3.3136,-3.3123,-3.3052,0,0,0,0,0,-3.2336,-3.2404,-3.2498,-3.2567,-3.2601,-3.2674,-3.2716,-3.2752,-3.2824,-3.2852,-3.2913,-3.2981,-3.3051,-3.3095,-3.3164,-3.3248,-3.3268,-3.328,-3.3282,-3.3284,-3.3289,-3.3336,-3.3342,-3.3278,-3.3278,-3.3278,0,0,-3.2338,-3.2408,-3.2447,-3.2561,-3.2617,-3.2685,-3.2697,-3.2768,-3.2818,-3.2862,-3.2947,-3.2994,-3.3074,-3.3158,-3.3198,-3.3198,-3.3312,-3.3288,-3.3289,-3.3294,-3.334,-3.3346,-3.3352,-3.328,-3.328,-3.3279,0,0,-3.2378,-3.2438,-3.2503,-3.256,-3.2647,-3.2695,-3.271,-3.2804,-3.2837,-3.2924,-3.2958,-3.3017,-3.3136,-3.3192,-3.3235,-3.3296,-3.3318,-3.3317,-3.3328,-3.3373,-3.3378,-3.3382,-3.3403,-3.341,-3.3323,-3.3323,-3.3323,0,-3.2369,-3.2474,-3.2532,-3.2602,-3.265,-3.2696,-3.2761,-3.2813,-3.2916,-3.2948,-3.2947,-3.3097,-3.3154,-3.3252,-3.3267,-3.3301,-3.3319,-3.3306,-3.3373,-3.3378,-3.3383,-3.3403,-3.3411,-3.3322,-3.3322,-3.3322,-3.3322,0,-3.2459,-3.2531,-3.2573,-3.2674,-3.2728,-3.2794,-3.2861,-3.2908,-3.2939,-3.2987,-3.3073,-3.3143,-3.3227,-3.3253,-3.3283,-3.3355,-3.3352,-3.3361,-3.3356,-3.3388,-3.3407,-3.3416,-3.3321,-3.3321,-3.3322,-3.3322,0,0,-3.2475,-3.2609,-3.2623,-3.2669,-3.2769,-3.2825,-3.2893,-3.2977,-3.3015,-3.3086,-3.3143,-3.3244,-3.3253,-3.3302,-3.3339,-3.3378,-3.3421,-3.3383,-3.3385,-3.3386,-3.3503,-3.3495,-3.3503,-3.3437,-3.3438,-3.344,-3.3496,0,-3.2526,-3.2652,-3.2707,-3.2807,-3.2874,-3.2918,-3.2978,-3.3044,-3.3091,-3.3153,-3.3204,-3.3274,-3.3281,-3.3311,-3.3352,-3.3407,-3.3445,-3.3404,-3.3489,-3.3491,-3.3466,-3.3514,-3.3505,-3.3555,-3.3504,-3.3506,-3.3507,0,-3.2602,-3.2675,-3.2782,-3.2874,-3.2904,-3.2956,-3.3038,-3.3097,-3.3173,-3.3204,-3.326,-3.3295,-3.3367,-3.3359,-3.3458,-3.3429,-3.3467,-3.3499,-3.3502,-3.3511,-3.35,-3.3522,-3.3572,-3.3579,-3.352,-3.3519,-3.3518,0,-3.2601,-3.2726,-3.2806,-3.2845,-3.2954,-3.299,-3.3036,-3.3111,-3.3158,-3.3229,-3.326,-3.3337,-3.3379,-3.3437,-3.3491,-3.3481,-3.3584,-3.3581,-3.3611,-3.3609,-3.3629,-3.3627,-3.3685,-3.3656,-3.3656,-3.3656,-3.3656,0,-3.2652,-3.2715,-3.2807,-3.2856,-3.2929,-3.2991,-3.306,-3.311,-3.3176,-3.3234,-3.3277,-3.3331,-3.34,-3.3462,-3.3505,-3.3579,-3.3598,-3.3624,-3.3634,-3.362,-3.3616,-3.3644,-3.3641,-3.3658,-3.3657,-3.3657,-3.3657,0,-3.2662,-3.2727,-3.2817,-3.2914,-3.2939,-3.2988,-3.307,-3.3119,-3.3168,-3.3242,-3.3262,-3.3339,-3.3414,-3.3475,-3.3572,-3.3601,-3.3679,-3.3692,-3.3654,-3.3659,-3.3685,-3.3681,-3.3761,-3.3775,-3.3738,-3.3738,-3.3738,0,-3.2689,-3.274,-3.2842,-3.2885,-3.2932,-3.3001,-3.305,-3.3113,-3.3161,-3.3252,-3.3289,-3.3368,-3.3434,-3.3551,-3.3615,-3.3689,-3.3703,-3.3726,-3.3714,-3.3698,-3.3702,-3.3698,-3.3702,-3.3727,-3.3727,-3.3727,-3.3727,0,-3.273,-3.276,-3.283,-3.291,-3.2968,-3.3034,-3.3101,-3.3133,-3.3208,-3.326,-3.3339,-3.339,-3.3491,-3.3568,-3.3649,-3.3696,-3.3723,-3.3731,-3.3741,-3.3725,-3.3701,-3.3713,-3.3656,-3.3728,-3.3728,-3.3728,-3.3728,-3.3728,-3.2749,-3.2796,-3.2876,-3.2952,-3.3009,-3.3071,-3.3121,-3.3178,-3.3245,-3.3333,-3.3366,-3.3446,-3.352,-3.3633,-3.368,-3.3742,-3.3745,-3.376,-3.3764,-3.3766,-3.3764,-3.3693,-3.3757,-3.3757,-3.3757,-3.3757,-3.3758,0,-3.2791,-3.2845,-3.2915,-3.3008,-3.3067,-3.3091,-3.3166,-3.3214,-3.3285,-3.3352,-3.3417,-3.3507,-3.3582,-3.3652,-3.373,-3.3766,-3.378,-3.3784,-3.3781,-3.3791,-3.3758,-3.374,-3.3771,-3.3771,-3.3771,-3.3771,-3.3771,-3.3771,-3.282,-3.29,-3.294,-3.3048,-3.3101,-3.3182,-3.3223,-3.3279,-3.3334,-3.3433,-3.3496,-3.3542,-3.361,-3.3694,-3.3763,-3.3781,-3.3807,-3.3807,-3.3829,-3.3796,-3.3794,-3.3792,-3.3775,-3.3813,-3.3813,-3.3857,-3.3858,-3.3858]},{"header":{"parameterUnit":"m.s-1","parameterCategory":1,"la1":30.2991,"la2":30.254,"lo1":-89.0895,"lo2":-89.0444,"dx":0.0017,"dy":0.0017,"nx":28,"ny":28,"refTime":"2023-01-02T15:00:00:Z","depth":0,"parameterNumber":3,"parameterNumberName":"V-component_of_WINDS"},"data":[0,0,0,0,0,0,0,0,0,0,0,0,0,0,0,0,0,0,0,0,0,0,0,0,0,0,0,0,0,0,0,0,0,0,0,0,0,0,0,0,0,0,0,0,0,0,0,0,0,0,0,0,0,0,0,0,0,0,5.9739,5.9741,0,5.9925,5.9927,5.9929,5.996,5.9958,5.9957,5.9955,6.0146,6.0152,6.0159,0,0,0,0,0,0,0,0,0,0,0,0,0,5.9413,5.9419,5.9738,5.9741,5.9743,5.9925,5.9927,5.993,5.996,5.9958,5.9956,5.9955,6.0144,6.0151,6.0159,0,0,0,0,0,0,0,0,0,0,0,0,0,5.9572,5.9421,5.9738,5.978,5.9786,5.9924,5.9927,5.993,5.9961,5.9958,5.9956,5.9954,6.0141,6.0151,6.016,6.0269,0,0,6.019,6.0195,0,0,0,0,0,0,0,0,5.9563,5.9584,5.9772,5.9778,5.9784,5.9917,5.9882,6.0044,5.9961,5.9894,5.9955,5.9952,6.0072,6.0087,6.0127,6.0278,6.0286,6.0191,6.0197,6.0202,6.0204,0,0,0,0,0,0,0,5.9552,5.9576,5.9812,5.9775,5.9782,5.9791,5.9811,5.9913,5.9994,5.99,5.9903,5.9924,6.0074,6.0118,6.0132,6.0289,6.0191,6.02,6.0206,6.021,6.0545,6.0548,0,0,0,0,0,0,5.9533,5.9567,5.9806,5.9818,5.9666,5.9799,5.9821,5.9877,5.9993,6.0009,5.9926,5.9925,6.0102,6.012,6.0139,6.0279,6.0201,6.0211,6.0216,6.0542,6.0546,6.0549,0,0,0,0,0,0,5.9526,5.9554,5.9799,5.9693,5.9725,5.9807,5.9869,5.9882,5.9925,6.0013,6.0028,5.9955,6.0101,6.0125,6.0238,6.0285,6.0215,6.0224,6.0539,6.0544,6.0548,6.0556,0,0,0,0,0,0,5.9517,5.9551,5.9593,5.9694,5.9731,5.9894,5.9872,5.9887,5.9942,5.9942,6.0044,6.0059,6.0101,6.0223,6.0248,6.0298,6.0232,6.0535,6.0541,6.0546,6.0552,6.056,6.0568,0,0,0,0,0,5.9505,5.9586,5.9594,5.9623,5.9784,5.9897,5.9918,5.9965,5.9945,5.9989,6.0046,6.0055,6.0276,6.0235,6.0263,6.0316,6.0532,6.0539,6.0546,6.0549,6.0559,6.0567,0,0,0,0,0,0,5.9487,5.96,5.961,5.9727,5.9802,5.9902,5.9957,5.9973,6.0055,6.0052,6.0106,6.0129,6.0241,6.0289,6.0241,6.0431,6.0403,6.0415,6.0395,6.0406,6.0413,6.0401,6.024,0,0,0,0,0,5.9497,5.9578,5.9673,5.9766,5.9804,5.9874,5.9925,5.9955,6.0035,6.0067,6.0132,6.021,6.0298,6.0354,6.0438,6.0559,6.0584,6.061,6.0617,6.0623,6.0634,6.0707,6.0721,6.0572,6.0572,6.0571,0,0,5.9517,5.9589,5.9637,5.9765,5.9827,5.9912,5.9901,5.999,6.0055,6.008,6.0193,6.0244,6.0334,6.0453,6.0509,6.0497,6.0681,6.0632,6.0636,6.0644,6.0716,6.073,6.0742,6.0576,6.0575,6.0575,0,0,5.96,5.966,5.9748,5.9811,5.9906,5.9953,5.9973,6.0072,6.0108,6.0221,6.0244,6.0322,6.0469,6.0535,6.0587,6.07,6.0713,6.0725,6.0767,6.0837,6.0849,6.086,6.0904,6.0919,6.0736,6.0736,6.0736,0,5.9614,5.9743,5.9791,5.9881,5.9939,5.9967,6.0058,6.0117,6.0234,6.0274,6.0259,6.0449,6.0511,6.0649,6.0677,6.0716,6.0745,6.0715,6.0843,6.0854,6.0865,6.0909,6.0925,6.0737,6.0737,6.0737,6.0737,0,5.9758,5.9847,5.9906,6.0021,6.0085,6.0175,6.0239,6.0298,6.0323,6.0372,6.049,6.0567,6.067,6.0704,6.0728,6.0846,6.0837,6.0832,6.0805,6.088,6.0922,6.0938,6.0739,6.0738,6.0738,6.0738,0,0,5.9833,5.9976,5.9998,6.0053,6.0161,6.0232,6.0324,6.0426,6.0478,6.0558,6.064,6.0767,6.0765,6.0824,6.0856,6.0917,6.1008,6.0906,6.0909,6.0926,6.1148,6.1154,6.1172,6.1016,6.102,6.1022,6.1142,0,5.9931,6.0098,6.0146,6.0288,6.0374,6.0404,6.0486,6.0562,6.0611,6.0692,6.0746,6.0837,6.0824,6.0862,6.0923,6.0984,6.1054,6.0975,6.1096,6.11,6.1076,6.1193,6.1199,6.1308,6.1158,6.1161,6.1163,0,6.0068,6.0154,6.0305,6.0407,6.0445,6.0517,6.0618,6.0694,6.0782,6.0814,6.0883,6.0911,6.1012,6.0978,6.112,6.1066,6.1118,6.1155,6.1161,6.1177,6.1138,6.1216,6.1344,6.1362,6.1188,6.1186,6.1184,0,6.0114,6.0267,6.0378,6.0424,6.0544,6.0595,6.0648,6.0734,6.0794,6.0882,6.0922,6.1019,6.1074,6.115,6.1204,6.1174,6.1343,6.1313,6.1375,6.1374,6.1412,6.1409,6.1554,6.1439,6.1439,6.1438,6.1438,0,6.0221,6.0313,6.0401,6.047,6.0576,6.0631,6.0734,6.0788,6.0865,6.0947,6.0977,6.1053,6.1119,6.1205,6.1248,6.1362,6.1385,6.1416,6.1427,6.1415,6.1412,6.1453,6.1448,6.1443,6.1442,6.1441,6.144,0,6.0291,6.0353,6.0477,6.0583,6.0611,6.0685,6.0776,6.0845,6.0896,6.1,6.1027,6.1107,6.121,6.1272,6.1401,6.1431,6.1558,6.1563,6.1529,6.1534,6.1595,6.159,6.1774,6.1803,6.1664,6.1666,6.1667,0,6.0357,6.0429,6.0543,6.0601,6.0655,6.0746,6.0808,6.0866,6.093,6.1039,6.1097,6.1202,6.1289,6.1452,6.1523,6.1624,6.1635,6.1692,6.165,6.1638,6.1641,6.1638,6.1648,6.17,6.1701,6.1702,6.1703,0,6.0469,6.0497,6.0586,6.0688,6.0762,6.0844,6.0926,6.0971,6.1043,6.1114,6.1221,6.1289,6.1423,6.1529,6.1636,6.1691,6.1711,6.1716,6.1736,6.1727,6.1706,6.1723,6.1553,6.1712,6.1711,6.171,6.171,6.1709,6.0542,6.061,6.0702,6.0802,6.087,6.0947,6.1019,6.1081,6.117,6.1285,6.1314,6.1427,6.1518,6.1664,6.1723,6.1813,6.1804,6.1833,6.1841,6.1848,6.1852,6.1689,6.1832,6.1832,6.1832,6.1832,6.1832,0,6.066,6.0722,6.0813,6.0928,6.1008,6.1019,6.1111,6.1177,6.1277,6.136,6.1447,6.1572,6.1675,6.1755,6.1862,6.1919,6.1931,6.1946,6.1944,6.1958,6.1852,6.1825,6.1935,6.1935,6.1935,6.1935,6.1935,6.1934,6.0731,6.0848,6.0888,6.1041,6.1102,6.1214,6.1266,6.1339,6.1406,6.1545,6.1632,6.1683,6.1767,6.1881,6.1977,6.1998,6.2038,6.2052,6.2075,6.1975,6.1964,6.1954,6.193,6.2059,6.2059,6.2174,6.2175,6.2176]}]]